Voltar ao catálogo

STARLINK-37205

AtivoComunicaçõesVLEO
NORAD 68332·PAYLOAD·🇺🇸 United States

Lançado Mar 22, 2026 de Cape Canaveral Space Force Station

Loading…

Próximas Passagens (próximas 24 horas)

TLE

AtualizadoSource: CelesTrak SupGP

Época: Sep 15, 2026, 04:18 UTC

1 68332C 26059M   26258.17965278 -.00038291  00000+0 -11315-2 0  2587
2 68332  53.1574 186.2421 0001330  85.2695 279.9651 15.34404615    18

Acompanhe STARLINK-37205 em tempo real com AllMySat

Download on the App Store